Terminal Aerodrome Forecast
Issued by NWS

Home | Current Version | Previous Version | Graphics & Text | Print | Product List | Glossary On
Versions: 1 2 3 4 5 6 7 8 9 10 11 12 13 14 15 16 17 18 19 20 21 22 23 24 25 26 27 28 29 30 31 32 33 34 35 36 37 38 39 40 41 42 43 44 45 46 47 48 49 50
000
FTUS43 KLOT 250500
TAFGYY
TAF
KGYY 250537Z 2506/2606 15005KT P6SM SCT250
     FM251400 20009KT P6SM SCT120 BKN200
     FM251800 20011G16KT P6SM SCT080 BKN120
     FM260000 19010KT P6SM VCSH BKN060 PROB30 2603/2606 4SM TSRA
      OVC040CB=

USA.gov is the U.S. government's official web portal to all federal, state and local government web resources and services.